Skip Page Navigation
NASA JPL Caltech
NASA Logo - Jet Propulsion Laboratory + View the NASA Portal
+ Center for Near-Earth Object Studies
JPL Home Earth Solar System Stars & Galaxies Technology
JPL Solar System Dynamics
BODIES ORBITS EPHEMERIDES TOOLS PHYSICAL DATA DISCOVERY FAQ SITE MAP
JPL Small-Body Database Browser
Search: [ help ]  
212652 (2006 UF116)
Classification: Main-belt Asteroid          SPK-ID: 2212652
Ephemeris | Orbit Diagram | Orbital Elements | Mission Design | Physical Parameters | Discovery Circumstances | Close-Approach Data ]

[ show orbit diagram ]
Orbital Elements at Epoch 2459000.5 (2020-May-31.0) TDB
Reference: JPL 12 (heliocentric ecliptic J2000)
 Element Value Uncertainty (1-sigma)   Units 
e .2434839231145199 5.7798e-08  
a 2.570602296162023 1.741e-08 au
q 1.9447019643253 1.4709e-07 au
i 6.69141276393941 6.0694e-06 deg
node 130.2582865365187 3.2992e-05 deg
peri 152.6243805120741 3.438e-05 deg
M 166.8117816236142 1.1775e-05 deg
tp 2458302.950577263186
(2018-Jul-03.45057726)
4.4711e-05 TDB
period 1505.396020239523
4.12
1.5294e-05
4.187e-08
d
yr
n .2391397314460288 2.4295e-09 deg/d
Q 3.196502627998745 2.1649e-08 au
  Orbit Determination Parameters
   # obs. used (total)      270  
   data-arc span      9777 days (26.77 yr)  
   first obs. used      1993-04-21  
   last obs. used      2020-01-27  
   planetary ephem.      DE431  
   SB-pert. ephem.      SB431-N16  
   condition code      0  
   norm. resid. RMS      .57912  
   source      ORB  
   producer      Otto Matic  
   solution date      2020-Feb-25 02:48:48  

Additional Information
 Earth MOID = .931132 au 
 Jupiter MOID = 1.98765 au 
 T_jup = 3.378 
[ show covariance matrix ]

Ephemeris | Orbit Diagram | Orbital Elements | Mission Design | Physical Parameters | Discovery Circumstances | Close-Approach Data ]

Physical Parameter Table
Parameter Symbol Value Units Sigma Reference Notes
absolute magnitude H 16.4   n/a MPO454526  
diameter diameter 1.288 km 0.201 urn:nasa:pds:neowise_diameters_albedos::2.0[mainbelt] (http://adsabs.harvard.edu/abs/2011ApJ...741...68M)  
geometric albedo albedo 0.268   0.061 urn:nasa:pds:neowise_diameters_albedos::2.0[mainbelt] (http://adsabs.harvard.edu/abs/2011ApJ...741...68M)  

212652 (2006 UF116)          Discovered 2006-Oct-19 by CSS at Catalina
Reference: 20090409/Numbers.arcLast Updated: 2009-04-10

[ hide close-approach data ]
Close-Approach Data   ...sorted by Date/Time (TDB)
Date/Time (TDB) Time Uncertainty
(days_HH:MM)
Body Nominal Distance (au) Minimum Distance (au) Maximum Distance (au) V-relative (km/s) V-infinity (km/s) JD (TDB) Time Uncertainty (minutes) Semi-major axis (km) Semi-minor axis (km) range-LOV angle (deg) N-sigma BP Orbit Ref. Reference Modified
1941-Dec-01 21:09 00:02 Jupiter 1.98631208863449 1.98631150392248 1.98631267334774 1.57488712194293 1.27569980747287 2430330.381418065 2.03921102611911 206.143815614834 94.2786047039414 83.013619702332 1502332.12580772 T 12 CATAB v2.0f-lin.ifort 2020-Feb-25 02:49:05 2020-Feb-25 02:49
1954-Aug-14 18:37 00:02 Jupiter 1.99149765325264 1.99149696531142 1.99149834119568 1.70561646062369 1.43474345519611 2434969.275610813 1.61542940003506 173.980365862666 91.3439811359751 -88.7835275712149 1190294.62986366 T 12 CATAB v2.0f-lin.ifort 2020-Feb-25 02:49:05 2020-Feb-25 02:49
2049-Mar-12 00:22 < 00:01 Jupiter 1.96263078231969 1.96263034361025 1.96263122102936 1.59216766428916 1.29299950993431 2469512.514995022 0.972168619500407 168.071811752841 105.446821495505 -72.3376438158576 1374499.00422183 T 12 CATAB v2.0f-lin.ifort 2020-Feb-25 02:49:05 2020-Feb-25 02:49
2143-Oct-10 00:51 00:04 Jupiter 1.98580219766414 1.98580138693437 1.98580300839707 1.63285019524942 1.34652193625511 2504056.535408032 3.58870512642948 225.48686555238 85.2828503869868 -89.8535937078601 1392967.92024958 T 12 CATAB v2.0f-lin.ifort 2020-Feb-25 02:49:05 2020-Feb-25 02:49
Ephemeris | Orbit Diagram | Orbital Elements | Mission Design | Physical Parameters | Discovery Circumstances | Close-Approach Data ]
ABOUT SSD CREDITS/AWARDS PRIVACY/COPYRIGHT GLOSSARY LINKS
FirstGov 2020-Aug-09 16:00 UT
(server date/time)  
NASA Home Page
Site Manager:   Ryan S. Park
Webmaster  Alan B. Chamberlin